Three Rivers, MI

6:27 PM EST on February 27, 2017 (GMT -0500)
Three Rivers Municipal-Haines

Weather History for KHAI - October, 2012

Change the Weather History Date:

Thursday, October 4, 2012

  Actual Average Record
Temperature  
Mean Temperature 64 °F -  
Max Temperature 77 °F 68 °F 89 °F (1951)
Min Temperature 52 °F 44 °F 28 °F (1989)
Growing Degree Days 14 (Base 50)    
Moisture  
Dew Point 54 °F    
Average Humidity 74    
Maximum Humidity 95    
Minimum Humidity 38    
Precipitation  
Precipitation 0.00 in - - ()
Sea Level Pressure  
Sea Level Pressure 30.06 in    
Wind  
Wind Speed 4 mph (SW)    
Max Wind Speed 23 mph    
Max Gust Speed 29 mph    
Visibility 7 miles    
Events Rain    
Averages and records for this station are not official NWS values.
T = Trace of Precipitation, MM = Missing Value Source: NWS Daily Summary

Daily Weather History Graph

Daily Weather History Graph

Search for Another Location

Airport or City:

Trip Planner

Search our weather history database for the weather conditions in past years. The results will help you decide how hot, cold, wet, or windy it might be!

Date:

Astronomy

Oct. 04, 2012 Rise Set
Actual Time 7:43 AM EDT 7:18 PM EDT
Civil Twilight 7:15 AM EDT 7:45 PM EDT
Nautical Twilight 6:42 AM EDT 8:18 PM EDT
Astronomical Twilight 6:10 AM EDT 8:50 PM EDT
Moon 9:48 PM EDT (10/4) 12:03 PM EDT (10/4)
Length of Visible Light 12h 30m
Length of Day
11h 34m
Waning Gibbous, 82% of the Moon is Illuminated
Oct 4
Waning Gibbous
Oct 8
Last Quarter
Oct 15
New
Oct 21
First Quarter
Oct 29
Full

Hourly Weather History & Observations

Time (EDT) Temp. Dew Point Humidity Pressure Visibility Wind Dir Wind Speed Gust Speed Precip Events Conditions
12:14 AM 57.2 °F 55.4 °F 94% 30.05 in 2.5 mi Calm Calm - N/A   Overcast
12:34 AM 57.2 °F 55.6 °F 94% 30.06 in 3.0 mi Calm Calm - N/A   Overcast
12:54 AM 57.0 °F 55.4 °F 94% 30.06 in 3.0 mi Calm Calm - N/A   Overcast
1:14 AM 56.5 °F 54.9 °F 94% 30.06 in 2.5 mi Calm Calm - N/A   Overcast
1:34 AM 55.4 °F 53.8 °F 94% 30.06 in 2.5 mi Calm Calm - N/A   Mostly Cloudy
1:53 AM 53.6 °F 52.0 °F 94% 30.06 in 2.5 mi South 3.5 mph - N/A   Clear
2:14 AM 53.4 °F 52.0 °F 95% 30.06 in 4.0 mi South 3.5 mph - N/A   Mostly Cloudy
2:34 AM 54.5 °F 52.9 °F 94% 30.06 in 5.0 mi South 3.5 mph - N/A   Overcast
2:53 AM 55.0 °F 53.6 °F 95% 30.06 in 5.0 mi Calm Calm - N/A   Overcast
3:14 AM 55.4 °F 53.8 °F 94% 30.06 in 7.0 mi Calm Calm - N/A   Overcast
3:34 AM 54.7 °F 52.9 °F 94% 30.06 in 5.0 mi Calm Calm - N/A   Overcast
3:53 AM 53.8 °F 52.0 °F 94% 30.06 in 3.0 mi Calm Calm - N/A   Mist
4:14 AM 53.6 °F 52.0 °F 94% 30.06 in 3.0 mi Calm Calm - N/A   Mist
4:33 AM 53.1 °F 51.4 °F 94% 30.07 in 3.0 mi Calm Calm - N/A   Mist
4:54 AM 52.2 °F 50.9 °F 95% 30.06 in 4.0 mi SSW 3.5 mph - N/A   Clear
5:14 AM 52.9 °F 51.6 °F 95% 30.06 in 5.0 mi Calm Calm - N/A   Clear
5:33 AM 52.7 °F 50.9 °F 94% 30.07 in 5.0 mi SSW 3.5 mph - N/A   Clear
5:54 AM 53.6 °F 51.8 °F 94% 30.07 in 5.0 mi SW 5.8 mph - N/A   Clear
6:14 AM 53.6 °F 51.8 °F 94% 30.07 in 5.0 mi SSW 4.6 mph - N/A   Clear
6:54 AM 53.4 °F 51.8 °F 94% 30.08 in 5.0 mi SSW 4.6 mph - N/A   Mostly Cloudy
7:14 AM 54.1 °F 52.5 °F 94% 30.09 in 5.0 mi SW 4.6 mph - N/A   Overcast
7:34 AM 54.3 °F 52.7 °F 94% 30.09 in 5.0 mi SSW 3.5 mph - N/A   Overcast
7:54 AM 54.0 °F 52.2 °F 94% 30.09 in 3.0 mi SSW 3.5 mph - N/A   Overcast
8:13 AM 54.0 °F 52.3 °F 94% 30.09 in 4.0 mi SW 3.5 mph - N/A   Mostly Cloudy
8:34 AM 54.1 °F 52.3 °F 94% 30.08 in 3.0 mi South 3.5 mph - N/A   Mostly Cloudy
8:53 AM 55.0 °F 53.4 °F 94% 30.08 in 4.0 mi South 3.5 mph - N/A   Mostly Cloudy
9:14 AM 56.3 °F 54.3 °F 93% 30.09 in 5.0 mi SSW 3.5 mph - N/A   Overcast
9:34 AM 58.3 °F 55.8 °F 91% 30.09 in 7.0 mi SSW 5.8 mph - N/A   Scattered Clouds
9:53 AM 59.7 °F 56.1 °F 88% 30.10 in 10.0 mi SSW 6.9 mph - N/A   Clear
10:14 AM 61.3 °F 55.6 °F 81% 30.10 in 10.0 mi SW 9.2 mph - N/A   Scattered Clouds
10:34 AM 62.2 °F 55.0 °F 77% 30.10 in 10.0 mi SSW 8.1 mph - N/A   Scattered Clouds
10:53 AM 63.5 °F 55.6 °F 75% 30.11 in 10.0 mi SW 9.2 mph - N/A   Clear
11:14 AM 65.5 °F 56.1 °F 72% 30.11 in 10.0 mi SSW 8.1 mph 16.1 mph N/A   Scattered Clouds
11:34 AM 66.7 °F 55.4 °F 67% 30.10 in 10.0 mi SW 12.7 mph - N/A   Clear
11:53 AM 68.0 °F 55.9 °F 65% 30.10 in 10.0 mi SSW 11.5 mph - N/A   Clear
12:14 PM 69.3 °F 55.9 °F 62% 30.10 in 10.0 mi SSW 10.4 mph 17.3 mph N/A   Clear
12:34 PM 70.7 °F 55.9 °F 59% 30.08 in 10.0 mi SW 11.5 mph - N/A   Clear
12:54 PM 72.0 °F 55.9 °F 57% 30.08 in 10.0 mi SSW 9.2 mph - N/A   Clear
1:14 PM 73.4 °F 55.9 °F 54% 30.08 in 10.0 mi SSW 11.5 mph 16.1 mph N/A   Clear
1:34 PM 74.3 °F 55.2 °F 51% 30.07 in 10.0 mi SSW 11.5 mph 17.3 mph N/A   Clear
1:54 PM 74.8 °F 54.1 °F 48% 30.06 in 10.0 mi SW 10.4 mph 18.4 mph N/A   Clear
2:33 PM 75.6 °F 52.9 °F 45% 30.05 in 10.0 mi SW 11.5 mph 20.7 mph N/A   Clear
2:54 PM 77.0 °F 51.1 °F 40% 30.03 in 10.0 mi SSW 13.8 mph 19.6 mph N/A   Scattered Clouds
3:14 PM 76.8 °F 50.0 °F 39% 30.03 in 10.0 mi SSW 12.7 mph 21.9 mph N/A   Clear
3:33 PM 76.6 °F 49.6 °F 39% 30.03 in 10.0 mi WSW 11.5 mph 17.3 mph N/A   Clear
3:54 PM 77.2 °F 50.2 °F 39% 30.03 in 10.0 mi SW 12.7 mph 20.7 mph N/A   Scattered Clouds
4:14 PM 77.9 °F 50.4 °F 38% 30.03 in 10.0 mi SW 9.2 mph 21.9 mph N/A   Scattered Clouds
4:33 PM 77.0 °F 49.6 °F 38% 30.03 in 10.0 mi SW 13.8 mph 18.4 mph N/A   Mostly Cloudy
4:54 PM 77.9 °F 51.1 °F 39% 30.02 in 10.0 mi WSW 11.5 mph 19.6 mph N/A   Scattered Clouds
5:14 PM 77.4 °F 50.4 °F 39% 30.02 in 10.0 mi SW 12.7 mph 20.7 mph N/A   Clear
5:34 PM 76.8 °F 50.9 °F 40% 30.01 in 10.0 mi SW 9.2 mph 19.6 mph N/A   Scattered Clouds
5:54 PM 76.8 °F 50.2 °F 39% 30.01 in 10.0 mi SW 9.2 mph 16.1 mph N/A   Scattered Clouds
6:14 PM 75.7 °F 50.9 °F 42% 30.01 in 10.0 mi SSW 8.1 mph - N/A   Mostly Cloudy
6:34 PM 74.3 °F 51.4 °F 45% 30.00 in 10.0 mi SSW 9.2 mph - N/A   Mostly Cloudy
6:54 PM 73.4 °F 52.0 °F 47% 30.00 in 10.0 mi SSW 6.9 mph - N/A   Scattered Clouds
7:14 PM 72.5 °F 52.3 °F 49% 30.00 in 10.0 mi SSW 8.1 mph - N/A   Scattered Clouds
7:34 PM 72.7 °F 52.7 °F 49% 30.00 in 10.0 mi SSW 8.1 mph - N/A   Mostly Cloudy
7:54 PM 72.7 °F 52.9 °F 50% 30.00 in 10.0 mi SSW 5.8 mph - N/A   Overcast
8:14 PM 70.0 °F 57.2 °F 64% 30.01 in 5.0 mi SW 6.9 mph - N/A Rain Heavy Rain
8:34 PM 65.7 °F 58.5 °F 78% 30.03 in 10.0 mi WSW 3.5 mph - N/A   Overcast
8:54 PM 66.7 °F 59.2 °F 77% 30.04 in 10.0 mi WNW 23.0 mph 28.8 mph N/A Rain Light Rain
10:14 PM 61.0 °F 58.3 °F 91% 30.06 in 7.0 mi West 8.1 mph - N/A   Overcast
10:33 PM 61.0 °F 58.5 °F 91% 30.05 in 7.0 mi WNW 4.6 mph - N/A   Overcast
10:54 PM 60.4 °F 57.6 °F 90% 30.06 in 7.0 mi West 6.9 mph - N/A   Overcast
11:14 PM 60.1 °F 57.2 °F 90% 30.06 in 7.0 mi West 9.2 mph - N/A   Overcast
11:33 PM 59.9 °F 57.2 °F 91% 30.07 in 7.0 mi West 6.9 mph - N/A   Overcast
11:54 PM 59.0 °F 55.0 °F 87% 30.07 in 10.0 mi West 9.2 mph 18.4 mph N/A   Overcast